Weather History for Piney Island, NC

Change the Weather History Date:

Wednesday, January 23, 2013

  Actual Average (KMRH) Record (KMRH)
Temperature  
Mean Temperature 1 °C -  
Max Temperature 4 °C 12 °C 20 °C (1974)
Min Temperature -1 °C 2 °C -11 °C (1970)
Degree Days  
Heating Degree Days 30    
Moisture  
Dew Point -12 °C    
Average Humidity 40    
Maximum Humidity 64    
Minimum Humidity 27    
Precipitation  
Precipitation 0.00 mm - - ()
Sea Level Pressure  
Sea Level Pressure 1026 hPa    
Wind  
Wind Speed 13 km/h (NW)    
Max Wind Speed 21 km/h    
Max Gust Speed -    
Averages and records for this station are not official NWS values.
T = Trace of Precipitation, MM = Missing Value Source: NWS Daily Summary

Daily Weather History Graph

Daily Weather History Graph

Search for Another Location

Airport:

Trip Planner

Search our weather history database for the weather conditions in past years. The results will help you decide how hot, cold, wet, or windy it might be!

Date:

Astronomy

Jan. 23, 2013 Rise Set
Actual Time 7:10 AM EST 5:25 PM EST
Civil Twilight 6:43 AM EST 5:52 PM EST
Nautical Twilight 6:12 AM EST 6:23 PM EST
Astronomical Twilight 5:42 AM EST 6:53 PM EST
Moon 2:36 PM EST (1/23) 4:18 AM EST (1/23)
Length of Visible Light 11h 09m
Length of Day
10h 15m
Waxing Gibbous, 89% of the Moon is Illuminated
Jan 23
Waxing Gibbous
Jan 26
Full
Feb 3
Last Quarter
Feb 10
New
Feb 17
First Quarter

Hourly Weather History & Observations

Time (EST) Temp. Windchill Dew Point Humidity Pressure Visibility Wind Dir Wind Speed Gust Speed Precip Events Conditions
12:56 AM 1.1 °C -2.6 °C -10.6 °C 42% 1025.2 hPa - North 13.0 km/h / 3.6 m/s - 0.0 mm   Clear
1:56 AM 0.6 °C -3.6 °C -11.7 °C 40% 1025.8 hPa - North 14.8 km/h / 4.1 m/s - 0.0 mm Snow Light Snow
2:56 AM 0.6 °C -3.6 °C -11.7 °C 40% 1026.1 hPa - North 14.8 km/h / 4.1 m/s - 0.0 mm Snow Light Snow
3:56 AM 0.0 °C -4.0 °C -10.6 °C 45% 1026.2 hPa - North 13.0 km/h / 3.6 m/s - 0.0 mm Snow Light Snow
4:56 AM -0.6 °C -4.7 °C -11.7 °C 43% 1026.8 hPa - North 13.0 km/h / 3.6 m/s - 0.0 mm Snow Light Snow
5:56 AM -0.6 °C -5.7 °C -12.8 °C 40% 1027.2 hPa - North 18.5 km/h / 5.1 m/s - 0.0 mm Snow Light Snow
6:56 AM -0.6 °C -6.0 °C -15.0 °C 33% 1027.9 hPa - North 20.4 km/h / 5.7 m/s - 0.0 mm   Clear
7:56 AM 0.0 °C -4.4 °C -13.9 °C 35% 1028.4 hPa - NNW 14.8 km/h / 4.1 m/s - 0.0 mm   Clear
8:56 AM 0.6 °C -4.2 °C -12.8 °C 37% 1028.8 hPa - North 18.5 km/h / 5.1 m/s - 0.0 mm Snow Light Snow
9:56 AM 0.6 °C -4.5 °C -14.4 °C 32% 1029.2 hPa - NNW 20.4 km/h / 5.7 m/s - 0.0 mm   Clear
10:56 AM 0.6 °C -4.5 °C -16.7 °C 27% 1029.1 hPa - NNW 20.4 km/h / 5.7 m/s - 0.0 mm Snow Light Snow
11:56 AM 1.7 °C -2.6 °C -14.4 °C 30% 1027.9 hPa - NNW 16.7 km/h / 4.6 m/s - 0.0 mm Snow Light Snow
12:56 PM 1.7 °C -0.5 °C -14.4 °C 30% 1027.0 hPa - Variable 7.4 km/h / 2.1 m/s - 0.0 mm   Clear
1:56 PM 2.8 °C 0.2 °C -14.4 °C 28% 1026.0 hPa - WNW 9.3 km/h / 2.6 m/s - 0.0 mm Snow Light Snow
2:56 PM 3.9 °C 1.1 °C -13.3 °C 28% 1025.3 hPa - WNW 11.1 km/h / 3.1 m/s - 0.0 mm   Clear
3:56 PM 3.9 °C 1.5 °C -11.7 °C 32% 1025.1 hPa - West 9.3 km/h / 2.6 m/s - N/A   Clear
4:56 PM 3.9 °C 0.8 °C -11.1 °C 33% 1024.7 hPa - SW 13.0 km/h / 3.6 m/s - N/A   Clear
5:56 PM 2.8 °C 0.2 °C -8.9 °C 42% 1025.0 hPa - SW 9.3 km/h / 2.6 m/s - N/A   Clear
6:56 PM 3.3 °C 0.8 °C -10.0 °C 38% 1025.0 hPa - SW 9.3 km/h / 2.6 m/s - N/A   Clear
7:56 PM 2.2 °C 0.0 °C -9.4 °C 43% 1024.4 hPa - SSW 7.4 km/h / 2.1 m/s - N/A   Clear
8:56 PM 1.1 °C -1.2 °C -5.0 °C 64% 1024.0 hPa - South 7.4 km/h / 2.1 m/s - N/A   Clear
9:56 PM 0.6 °C -2.4 °C -9.4 °C 48% 1023.7 hPa - SSW 9.3 km/h / 2.6 m/s - N/A   Clear
10:56 PM 1.1 °C -1.2 °C -6.1 °C 59% 1022.4 hPa - South 7.4 km/h / 2.1 m/s - N/A   Clear
11:56 PM 1.1 °C -1.8 °C -5.6 °C 61% 1021.0 hPa - South 9.3 km/h / 2.6 m/s - N/A   Clear